TimeEDT,TemperatureF,Dew PointF,Humidity,Sea Level PressureIn,VisibilityMPH,Wind Direction,Wind SpeedMPH,Gust SpeedMPH,PrecipitationIn,Events,Conditions,WindDirDegrees,DateUTC
12:15 AM,48.2,35.6,62,30.00,10.0,Calm,Calm,-,N/A,,Clear,0,2012-10-22 04:15:00
12:35 AM,44.6,35.6,71,30.00,10.0,Calm,Calm,-,N/A,,Clear,0,2012-10-22 04:35:00
12:55 AM,42.8,35.6,76,30.00,10.0,Calm,Calm,-,N/A,,Clear,0,2012-10-22 04:55:00
1:15 AM,42.8,35.6,76,30.00,10.0,Calm,Calm,-,N/A,,Clear,0,2012-10-22 05:15:00
1:55 AM,48.2,35.6,62,30.00,10.0,Calm,Calm,-,N/A,,Clear,0,2012-10-22 05:55:00
2:15 AM,44.6,35.6,71,30.01,10.0,Calm,Calm,-,N/A,,Clear,0,2012-10-22 06:15:00
2:35 AM,48.2,35.6,62,30.00,10.0,West,4.6,-,N/A,,Clear,270,2012-10-22 06:35:00
2:55 AM,48.2,35.6,62,30.00,10.0,WNW,3.5,-,N/A,,Clear,290,2012-10-22 06:55:00
3:15 AM,48.2,35.6,62,30.00,10.0,West,3.5,-,N/A,,Clear,270,2012-10-22 07:15:00
3:35 AM,42.8,35.6,76,30.01,10.0,Calm,Calm,-,N/A,,Clear,0,2012-10-22 07:35:00
3:55 AM,42.8,35.6,76,30.02,10.0,East,3.5,-,N/A,,Clear,90,2012-10-22 07:55:00
4:15 AM,44.6,35.6,71,30.02,10.0,Calm,Calm,-,N/A,,Clear,0,2012-10-22 08:15:00
4:55 AM,46.4,37.4,71,30.03,10.0,WNW,3.5,-,N/A,,Clear,290,2012-10-22 08:55:00
5:15 AM,46.4,35.6,66,30.03,10.0,WNW,3.5,-,N/A,,Clear,290,2012-10-22 09:15:00
5:35 AM,46.4,35.6,66,30.03,10.0,Calm,Calm,-,N/A,,Clear,0,2012-10-22 09:35:00
5:45 AM,42.8,35.6,76,30.04,10.0,Calm,Calm,-,N/A,,Clear,0,2012-10-22 09:45:00
6:45 AM,39.2,35.6,87,30.05,10.0,Calm,Calm,-,N/A,,Clear,0,2012-10-22 10:45:00
7:45 AM,42.8,37.4,81,30.07,10.0,Calm,Calm,-,N/A,,Clear,0,2012-10-22 11:45:00
8:45 AM,48.2,39.2,71,30.08,10.0,Calm,Calm,-,N/A,,Clear,0,2012-10-22 12:45:00
9:45 AM,51.8,39.2,62,30.09,10.0,WNW,11.5,-,N/A,,Clear,300,2012-10-22 13:45:00
10:45 AM,55.4,39.2,54,30.08,10.0,WNW,9.2,-,N/A,,Clear,300,2012-10-22 14:45:00
11:45 AM,57.2,39.2,51,30.07,10.0,NW,10.4,-,N/A,,Mostly Cloudy,320,2012-10-22 15:45:00
12:45 PM,60.8,39.2,45,30.03,10.0,NW,6.9,-,N/A,,Mostly Cloudy,320,2012-10-22 16:45:00
1:45 PM,60.8,39.2,45,30.02,10.0,NW,10.4,-,N/A,,Partly Cloudy,310,2012-10-22 17:45:00
2:45 PM,62.6,39.2,42,30.01,10.0,NW,10.4,16.1,N/A,,Partly Cloudy,310,2012-10-22 18:45:00
3:45 PM,64.4,39.2,40,30.00,10.0,NW,11.5,19.6,N/A,,Clear,320,2012-10-22 19:45:00
4:45 PM,64.4,37.4,37,30.00,10.0,NW,9.2,16.1,N/A,,Clear,320,2012-10-22 20:45:00
5:45 PM,62.6,37.4,39,30.01,10.0,NW,9.2,-,N/A,,Clear,320,2012-10-22 21:45:00
6:45 PM,60.8,37.4,42,30.03,10.0,NW,4.6,-,N/A,,Clear,310,2012-10-22 22:45:00
7:45 PM,57.2,37.4,48,30.04,10.0,NW,3.5,-,N/A,,Clear,320,2012-10-22 23:45:00
8:55 PM,55.4,39.2,54,30.06,10.0,NW,3.5,-,N/A,,Clear,310,2012-10-23 00:55:00
9:15 PM,55.4,39.2,54,30.06,10.0,NW,4.6,-,N/A,,Clear,320,2012-10-23 01:15:00
9:55 PM,55.4,39.2,54,30.06,10.0,NNW,6.9,-,N/A,,Clear,330,2012-10-23 01:55:00
10:15 PM,55.4,37.4,51,30.06,10.0,NW,5.8,-,N/A,,Clear,320,2012-10-23 02:15:00
10:35 PM,55.4,37.4,51,30.06,10.0,NW,4.6,-,N/A,,Clear,320,2012-10-23 02:35:00
10:55 PM,55.4,35.6,47,30.07,10.0,NNW,4.6,-,N/A,,Clear,330,2012-10-23 02:55:00
11:15 PM,55.4,35.6,47,30.08,10.0,NNW,4.6,-,N/A,,Clear,330,2012-10-23 03:15:00
11:35 PM,53.6,35.6,51,30.07,10.0,NW,4.6,-,N/A,,Clear,310,2012-10-23 03:35:00
11:55 PM,53.6,37.4,54,30.08,10.0,NW,4.6,-,N/A,,Clear,320,2012-10-23 03:55:00